WAT3465 FYWH-FACT

Flight info

Callsign WAT3465
Flight time 1h 44m
Altitude 40000
Route UVORI1A UVORI UN185 OKLOK DCT ERDAS ERDAS1C
Aircraft A359/H-SDE2E3GHIJ3J4J5LM1ORWXY/LB1D1

Departure

Time 2026-04-25 07:35
Airport Hosea Kutako International Airport (FYWH)

Arrival

Time 2026-04-25 09:20
Airport Cape Town International Airport (FACT)
Time Latitude Longitude Altitude Speed Heading
2026-04-25 07:02 -22.48593 17.46314 5616 ft 0 kts 327°
2026-04-25 07:27 -22.48573 17.46300 5616 ft 6 kts 330°
2026-04-25 07:28 -22.48531 17.46290 5616 ft 7 kts
2026-04-25 07:28 -22.48488 17.46314 5618 ft 6 kts 31°
2026-04-25 07:28 -22.48464 17.46316 5615 ft 0 kts 351°
2026-04-25 07:30 -22.48446 17.46310 5612 ft 7 kts 343°
2026-04-25 07:30 -22.48393 17.46271 5616 ft 11 kts 303°
2026-04-25 07:30 -22.48400 17.46205 5618 ft 9 kts 243°
2026-04-25 07:30 -22.48429 17.46142 5619 ft 12 kts 243°
2026-04-25 07:31 -22.48480 17.46035 5621 ft 21 kts 243°
2026-04-25 07:31 -22.48557 17.45868 5623 ft 29 kts 243°
2026-04-25 07:31 -22.48653 17.45661 5629 ft 31 kts 244°
2026-04-25 07:31 -22.48745 17.45461 5635 ft 29 kts 243°
2026-04-25 07:32 -22.48829 17.45280 5641 ft 25 kts 243°
2026-04-25 07:32 -22.48879 17.45171 5643 ft 11 kts 244°
2026-04-25 07:32 -22.48914 17.45115 5646 ft 8 kts 218°
2026-04-25 07:32 -22.48973 17.45098 5648 ft 10 kts 185°
2026-04-25 07:33 -22.49031 17.45072 5648 ft 9 kts 222°
2026-04-25 07:33 -22.49037 17.45024 5649 ft 6 kts 286°
2026-04-25 07:33 -22.49017 17.44997 5651 ft 4 kts 319°
2026-04-25 07:33 -22.48990 17.44984 5652 ft 4 kts 349°
2026-04-25 07:34 -22.48963 17.45001 5653 ft 6 kts 48°
2026-04-25 07:34 -22.48928 17.45069 5650 ft 16 kts 64°
2026-04-25 07:34 -22.48816 17.45308 5641 ft 67 kts 63°
2026-04-25 07:34 -22.48502 17.45989 5622 ft 133 kts 63°
2026-04-25 07:35 -22.48004 17.47076 5662 ft 182 kts 61°
2026-04-25 07:35 -22.47466 17.48269 6629 ft 173 kts 61°
2026-04-25 07:35 -22.46912 17.49464 7161 ft 187 kts 60°
2026-04-25 07:35 -22.46281 17.50782 7491 ft 208 kts 59°
2026-04-25 07:36 -22.45817 17.52358 7834 ft 234 kts 82°
2026-04-25 07:36 -22.46108 17.54147 8373 ft 253 kts 113°
2026-04-25 07:36 -22.47248 17.55667 8856 ft 276 kts 141°
2026-04-25 07:36 -22.49072 17.56499 9335 ft 294 kts 173°
2026-04-25 07:37 -22.51095 17.56756 10230 ft 295 kts 172°
2026-04-25 07:37 -22.53105 17.57310 10942 ft 302 kts 159°
2026-04-25 07:37 -22.55086 17.58135 11638 ft 309 kts 158°
2026-04-25 07:37 -22.57107 17.59011 12331 ft 317 kts 158°
2026-04-25 07:38 -22.59161 17.59925 13132 ft 321 kts 158°
2026-04-25 07:38 -22.61222 17.60863 13675 ft 321 kts 157°
2026-04-25 07:38 -22.63272 17.61812 13766 ft 322 kts 157°
2026-04-25 07:38 -22.65312 17.62771 13742 ft 323 kts 157°
2026-04-25 07:39 -22.67404 17.63740 13736 ft 323 kts 159°
2026-04-25 07:39 -22.69570 17.64175 13846 ft 323 kts 183°
2026-04-25 07:39 -22.71824 17.63822 14085 ft 336 kts 192°
2026-04-25 07:39 -22.74218 17.63481 14299 ft 358 kts 187°
2026-04-25 07:40 -22.76758 17.63284 14610 ft 374 kts 185°
2026-04-25 07:40 -22.79404 17.63117 14998 ft 385 kts 185°
2026-04-25 07:40 -22.82093 17.62953 15659 ft 387 kts 186°
2026-04-25 07:40 -22.84778 17.62756 16369 ft 388 kts 186°
2026-04-25 07:41 -22.87484 17.62549 17065 ft 390 kts 186°
2026-04-25 07:41 -22.90200 17.62340 17739 ft 392 kts 187°
2026-04-25 07:41 -22.92929 17.62130 18395 ft 395 kts 187°
2026-04-25 07:41 -22.95680 17.61919 18971 ft 398 kts 187°
2026-04-25 07:42 -22.98453 17.61706 19533 ft 401 kts 187°
2026-04-25 07:42 -23.01241 17.61492 20108 ft 404 kts 187°
2026-04-25 07:42 -23.04053 17.61275 20675 ft 407 kts 187°
2026-04-25 07:42 -23.06888 17.61057 21258 ft 410 kts 187°
2026-04-25 07:43 -23.09743 17.60837 21829 ft 412 kts 187°
2026-04-25 07:43 -23.12613 17.60617 22400 ft 415 kts 187°
2026-04-25 07:43 -23.15509 17.60394 22969 ft 419 kts 187°
2026-04-25 07:43 -23.18420 17.60170 23548 ft 421 kts 187°
2026-04-25 07:44 -23.21356 17.59943 24048 ft 424 kts 187°
2026-04-25 07:44 -23.24317 17.59816 24541 ft 429 kts 182°
2026-04-25 07:44 -23.27306 17.60068 25073 ft 433 kts 178°
2026-04-25 07:44 -23.30304 17.60492 25599 ft 436 kts 176°
2026-04-25 07:45 -23.33312 17.60997 26117 ft 439 kts 175°
2026-04-25 07:45 -23.36327 17.61531 26616 ft 441 kts 176°
2026-04-25 07:45 -23.39367 17.62070 27120 ft 443 kts 176°
2026-04-25 07:45 -23.42424 17.62602 27606 ft 446 kts 176°
2026-04-25 07:46 -23.45500 17.63125 28096 ft 448 kts 177°
2026-04-25 07:46 -23.48551 17.63635 28578 ft 450 kts 177°
2026-04-25 07:46 -23.51662 17.64149 29055 ft 453 kts 178°
2026-04-25 07:46 -23.54782 17.64661 29513 ft 455 kts 178°
2026-04-25 07:47 -23.57928 17.65176 29959 ft 458 kts 178°
2026-04-25 07:47 -23.61082 17.65692 30362 ft 460 kts 178°
2026-04-25 07:47 -23.64259 17.66213 30721 ft 463 kts 178°
2026-04-25 07:47 -23.67451 17.66738 31083 ft 465 kts 178°
2026-04-25 07:48 -23.70664 17.67267 31441 ft 467 kts 178°
2026-04-25 07:48 -23.73881 17.67797 31785 ft 469 kts 178°
2026-04-25 07:48 -23.77119 17.68332 32128 ft 471 kts 178°
2026-04-25 07:48 -23.80371 17.68870 32465 ft 473 kts 179°
2026-04-25 07:49 -23.83631 17.69402 32796 ft 475 kts 179°
2026-04-25 07:49 -23.86909 17.69934 33100 ft 477 kts 179°
2026-04-25 07:49 -23.90197 17.70465 33403 ft 479 kts 179°
2026-04-25 07:49 -23.93491 17.70999 33695 ft 480 kts 179°
2026-04-25 07:50 -23.96798 17.71537 34077 ft 479 kts 179°
2026-04-25 07:50 -24.00094 17.72076 34456 ft 478 kts 179°
2026-04-25 07:50 -24.03386 17.72615 34740 ft 479 kts 179°
2026-04-25 07:50 -24.06681 17.73152 35004 ft 480 kts 179°
2026-04-25 07:51 -24.09986 17.73691 35291 ft 480 kts 179°
2026-04-25 07:51 -24.13292 17.74231 35579 ft 480 kts 179°
2026-04-25 07:51 -24.16594 17.74771 35859 ft 481 kts 179°
2026-04-25 07:51 -24.19907 17.75313 36128 ft 481 kts 179°
2026-04-25 07:52 -24.23224 17.75855 36401 ft 482 kts 179°
2026-04-25 07:52 -24.26543 17.76399 36671 ft 482 kts 179°
2026-04-25 07:52 -24.29859 17.76942 36938 ft 483 kts 179°
2026-04-25 07:52 -24.33184 17.77487 37203 ft 483 kts 179°
2026-04-25 07:53 -24.36512 17.78033 37466 ft 483 kts 179°
2026-04-25 07:53 -24.39843 17.78579 37737 ft 484 kts 179°
2026-04-25 07:53 -24.43165 17.79125 37998 ft 484 kts 179°
2026-04-25 07:53 -24.46498 17.79673 38256 ft 484 kts 179°
2026-04-25 07:54 -24.49831 17.80221 38505 ft 484 kts 179°
2026-04-25 07:54 -24.53168 17.80762 38742 ft 485 kts 179°
2026-04-25 07:54 -24.56505 17.81298 38959 ft 484 kts 179°
2026-04-25 07:54 -24.59840 17.81832 39187 ft 484 kts 179°
2026-04-25 07:55 -24.63163 17.82364 39418 ft 483 kts 179°
2026-04-25 07:55 -24.66486 17.82898 39633 ft 482 kts 179°
2026-04-25 07:55 -24.69808 17.83431 39823 ft 482 kts 179°
2026-04-25 07:55 -24.73121 17.83964 40023 ft 482 kts 179°
2026-04-25 07:56 -24.79767 17.85034 40092 ft 481 kts 179°
2026-04-25 07:56 -24.86388 17.86102 40092 ft 481 kts 180°
2026-04-25 07:57 -24.93003 17.87170 40090 ft 481 kts 180°
2026-04-25 07:57 -24.99624 17.88241 40087 ft 480 kts 180°
2026-04-25 07:58 -25.06236 17.89312 40083 ft 481 kts 180°
2026-04-25 07:58 -25.12857 17.90396 40087 ft 481 kts 180°
2026-04-25 07:59 -25.19425 17.91473 40082 ft 480 kts 180°
2026-04-25 07:59 -25.26041 17.92559 40083 ft 480 kts 180°
2026-04-25 08:00 -25.32655 17.93644 40083 ft 480 kts 180°
2026-04-25 08:00 -25.39259 17.94728 40076 ft 480 kts 180°
2026-04-25 08:01 -25.45872 17.95816 40079 ft 480 kts 180°
2026-04-25 08:01 -25.52480 17.96903 40079 ft 480 kts 180°
2026-04-25 08:02 -25.59085 17.97993 40078 ft 480 kts 180°
2026-04-25 08:02 -25.65695 17.99083 40080 ft 480 kts 180°
2026-04-25 08:03 -25.72296 18.00173 40080 ft 480 kts 180°
2026-04-25 08:03 -25.78907 18.01266 40075 ft 480 kts 180°
2026-04-25 08:04 -25.85512 18.02360 40078 ft 480 kts 180°
2026-04-25 08:04 -25.92113 18.03454 40077 ft 480 kts 180°
2026-04-25 08:05 -25.98719 18.04549 40073 ft 479 kts 180°
2026-04-25 08:05 -26.05314 18.05644 40075 ft 479 kts 180°
2026-04-25 08:06 -26.11908 18.06740 40072 ft 479 kts 180°
2026-04-25 08:06 -26.18507 18.07839 40071 ft 479 kts 180°
2026-04-25 08:07 -26.25103 18.08939 40072 ft 479 kts 180°
2026-04-25 08:07 -26.31645 18.10030 40069 ft 479 kts 180°
2026-04-25 08:08 -26.38237 18.11131 40066 ft 479 kts 180°
2026-04-25 08:08 -26.44823 18.12232 40062 ft 479 kts 180°
2026-04-25 08:09 -26.50348 18.13157 40061 ft 479 kts 180°
2026-04-25 08:09 -26.56933 18.14261 40059 ft 479 kts 180°
2026-04-25 08:10 -26.63521 18.15366 40054 ft 479 kts 180°
2026-04-25 08:10 -26.70061 18.16465 40052 ft 479 kts 180°
2026-04-25 08:11 -26.76643 18.17571 40053 ft 479 kts 180°
2026-04-25 08:11 -26.83234 18.18681 40053 ft 479 kts 180°
2026-04-25 08:12 -26.89820 18.19792 40050 ft 479 kts 180°
2026-04-25 08:12 -26.96407 18.20904 40044 ft 478 kts 180°
2026-04-25 08:13 -27.02991 18.22016 40045 ft 478 kts 180°
2026-04-25 08:14 -27.12863 18.23683 40052 ft 479 kts 180°
2026-04-25 08:14 -27.19454 18.24802 40058 ft 479 kts 180°
2026-04-25 08:15 -27.26038 18.25921 40053 ft 479 kts 180°
2026-04-25 08:15 -27.32621 18.27040 40048 ft 479 kts 180°
2026-04-25 08:16 -27.39204 18.28159 40053 ft 479 kts 180°
2026-04-25 08:16 -27.45794 18.29281 40050 ft 479 kts 180°
2026-04-25 08:17 -27.52372 18.30373 40048 ft 476 kts 182°
2026-04-25 08:17 -27.58934 18.30947 40046 ft 471 kts 186°
2026-04-25 08:18 -27.65440 18.31338 40043 ft 471 kts 186°
2026-04-25 08:18 -27.72040 18.31805 40039 ft 472 kts 185°
2026-04-25 08:19 -27.78552 18.32328 40031 ft 473 kts 185°
2026-04-25 08:19 -27.85122 18.32875 40029 ft 473 kts 185°
2026-04-25 08:20 -27.91684 18.33423 40024 ft 473 kts 185°
2026-04-25 08:20 -27.98254 18.33961 40019 ft 473 kts 185°
2026-04-25 08:21 -28.04819 18.34494 40017 ft 473 kts 185°
2026-04-25 08:21 -28.11393 18.35046 40013 ft 475 kts 184°
2026-04-25 08:22 -28.17996 18.36222 40019 ft 482 kts 179°
2026-04-25 08:22 -28.24593 18.37590 40016 ft 483 kts 179°
2026-04-25 08:23 -28.31202 18.38992 40012 ft 483 kts 179°
2026-04-25 08:23 -28.37807 18.40388 40013 ft 483 kts 179°
2026-04-25 08:24 -28.44418 18.41785 40013 ft 483 kts 179°
2026-04-25 08:24 -28.51025 18.43170 40014 ft 483 kts 179°
2026-04-25 08:25 -28.57642 18.44560 40015 ft 483 kts 179°
2026-04-25 08:25 -28.64254 18.45954 40014 ft 484 kts 179°
2026-04-25 08:26 -28.70869 18.47352 40015 ft 484 kts 179°
2026-04-25 08:26 -28.77495 18.48753 40015 ft 484 kts 179°
2026-04-25 08:27 -28.84118 18.50154 40016 ft 484 kts 179°
2026-04-25 08:27 -28.90745 18.51559 40018 ft 484 kts 179°
2026-04-25 08:28 -28.97370 18.52965 40017 ft 485 kts 179°
2026-04-25 08:28 -29.03963 18.54366 40019 ft 485 kts 179°
2026-04-25 08:29 -29.10599 18.55779 40027 ft 485 kts 179°
2026-04-25 08:29 -29.17234 18.57193 40028 ft 485 kts 179°
2026-04-25 08:30 -29.23770 18.58588 40033 ft 485 kts 179°
2026-04-25 08:30 -29.30408 18.60006 40033 ft 485 kts 180°
2026-04-25 08:31 -29.37042 18.61425 40038 ft 485 kts 180°
2026-04-25 08:31 -29.43683 18.62847 40038 ft 485 kts 180°
2026-04-25 08:32 -29.50318 18.64270 40038 ft 485 kts 180°
2026-04-25 08:32 -29.56950 18.65695 40037 ft 485 kts 180°
2026-04-25 08:33 -29.63590 18.67123 40032 ft 485 kts 180°
2026-04-25 08:33 -29.70220 18.68551 40034 ft 485 kts 180°
2026-04-25 08:34 -29.76859 18.69982 40029 ft 485 kts 180°
2026-04-25 08:34 -29.83496 18.71415 40032 ft 485 kts 180°
2026-04-25 08:35 -29.90125 18.72849 40028 ft 485 kts 180°
2026-04-25 08:35 -29.96755 18.74284 40025 ft 485 kts 180°
2026-04-25 08:36 -30.03389 18.75722 40023 ft 485 kts 180°
2026-04-25 08:36 -30.10017 18.77162 40018 ft 485 kts 180°
2026-04-25 08:37 -30.16653 18.78604 40019 ft 485 kts 180°
2026-04-25 08:37 -30.23277 18.80046 40020 ft 485 kts 180°
2026-04-25 08:38 -30.29910 18.81492 40019 ft 485 kts 180°
2026-04-25 08:38 -30.36534 18.82938 40014 ft 485 kts 180°
2026-04-25 08:39 -30.43166 18.84387 40015 ft 485 kts 180°
2026-04-25 08:39 -30.49792 18.85838 40016 ft 485 kts 180°
2026-04-25 08:40 -30.56422 18.87291 40016 ft 485 kts 180°
2026-04-25 08:40 -30.63019 18.88739 40016 ft 485 kts 180°
2026-04-25 08:41 -30.69653 18.90197 40017 ft 486 kts 180°
2026-04-25 08:41 -30.76299 18.91659 40012 ft 486 kts 180°
2026-04-25 08:42 -30.82937 18.93123 40014 ft 486 kts 180°
2026-04-25 08:42 -30.89589 18.94591 40018 ft 486 kts 180°
2026-04-25 08:43 -30.96236 18.96060 40017 ft 487 kts 180°
2026-04-25 08:43 -31.02888 18.97532 40020 ft 487 kts 180°
2026-04-25 08:44 -31.09552 18.99010 40020 ft 487 kts 179°
2026-04-25 08:44 -31.16212 19.00495 40024 ft 488 kts 179°
2026-04-25 08:45 -31.22887 19.01978 40019 ft 488 kts 179°
2026-04-25 08:45 -31.29562 19.03460 40022 ft 488 kts 179°
2026-04-25 08:46 -31.36233 19.04947 40017 ft 488 kts 179°
2026-04-25 08:46 -31.42911 19.06438 40025 ft 489 kts 179°
2026-04-25 08:47 -31.49606 19.07934 40019 ft 489 kts 179°
2026-04-25 08:47 -31.56291 19.09431 40024 ft 489 kts 179°
2026-04-25 08:48 -31.62980 19.10932 40024 ft 489 kts 179°
2026-04-25 08:48 -31.69670 19.12435 40022 ft 490 kts 179°
2026-04-25 08:49 -31.76372 19.13941 40022 ft 491 kts 179°
2026-04-25 08:49 -31.83034 19.15444 40017 ft 490 kts 179°
2026-04-25 08:50 -31.89778 19.16964 40017 ft 491 kts 179°
2026-04-25 08:50 -31.96498 19.18481 40018 ft 492 kts 179°
2026-04-25 08:51 -32.03214 19.20001 40013 ft 492 kts 179°
2026-04-25 08:51 -32.09935 19.21524 40009 ft 492 kts 179°
2026-04-25 08:52 -32.16662 19.22984 40008 ft 487 kts 182°
2026-04-25 08:52 -32.23265 19.23215 40005 ft 475 kts 191°
2026-04-25 08:53 -32.29866 19.22988 39756 ft 475 kts 191°
2026-04-25 08:53 -32.33142 19.22869 39576 ft 465 kts 191°
2026-04-25 08:53 -32.36350 19.22755 39261 ft 459 kts 192°
2026-04-25 08:53 -32.39546 19.22632 38629 ft 461 kts 191°
2026-04-25 08:54 -32.42760 19.22506 37911 ft 462 kts 191°
2026-04-25 08:54 -32.45975 19.22380 37287 ft 463 kts 191°
2026-04-25 08:54 -32.49199 19.22255 36625 ft 464 kts 191°
2026-04-25 08:54 -32.52426 19.22129 35977 ft 466 kts 190°
2026-04-25 08:55 -32.55677 19.22003 35294 ft 468 kts 189°
2026-04-25 08:55 -32.57881 19.21918 34785 ft 472 kts 189°
2026-04-25 08:55 -32.61183 19.21788 33993 ft 477 kts 188°
2026-04-25 08:55 -32.64521 19.21657 33095 ft 482 kts 188°
2026-04-25 08:56 -32.67890 19.21528 32244 ft 486 kts 187°
2026-04-25 08:56 -32.71279 19.21398 31375 ft 489 kts 187°
2026-04-25 08:56 -32.74672 19.21270 30763 ft 486 kts 186°
2026-04-25 08:56 -32.78041 19.21143 30178 ft 482 kts 186°
2026-04-25 08:57 -32.81373 19.21020 29550 ft 477 kts 186°
2026-04-25 08:57 -32.84677 19.20895 28928 ft 472 kts 186°
2026-04-25 08:57 -32.87948 19.20770 28344 ft 469 kts 186°
2026-04-25 08:57 -32.91198 19.20643 27761 ft 465 kts 186°
2026-04-25 08:58 -32.94426 19.20519 27181 ft 462 kts 186°
2026-04-25 08:58 -32.97628 19.20395 26613 ft 459 kts 186°
2026-04-25 08:58 -33.00804 19.20272 26043 ft 456 kts 186°
2026-04-25 08:58 -33.03967 19.20149 25465 ft 453 kts 186°
2026-04-25 08:59 -33.07110 19.20028 24887 ft 450 kts 186°
2026-04-25 08:59 -33.10190 19.19909 24335 ft 447 kts 186°
2026-04-25 08:59 -33.13296 19.19789 23750 ft 446 kts 186°
2026-04-25 08:59 -33.16397 19.19666 23097 ft 446 kts 186°
2026-04-25 09:00 -33.19493 19.19544 22562 ft 442 kts 186°
2026-04-25 09:00 -33.22567 19.19424 22286 ft 444 kts 186°
2026-04-25 09:00 -33.25662 19.19301 22030 ft 446 kts 186°
2026-04-25 09:00 -33.28765 19.19180 21777 ft 446 kts 186°
2026-04-25 09:01 -33.31835 19.19064 21617 ft 435 kts 186°
2026-04-25 09:01 -33.34813 19.18954 21480 ft 421 kts 186°
2026-04-25 09:01 -33.37681 19.18789 21346 ft 405 kts 190°
2026-04-25 09:01 -33.40380 19.18156 21219 ft 386 kts 202°
2026-04-25 09:02 -33.42775 19.16913 21039 ft 368 kts 215°
2026-04-25 09:02 -33.44839 19.15210 20836 ft 354 kts 223°
2026-04-25 09:02 -33.46729 19.13374 20590 ft 345 kts 225°
2026-04-25 09:02 -33.48517 19.11513 20340 ft 338 kts 227°
2026-04-25 09:03 -33.50268 19.09670 20177 ft 334 kts 224°
2026-04-25 09:03 -33.52103 19.07938 19682 ft 339 kts 223°
2026-04-25 09:03 -33.53971 19.06234 19411 ft 334 kts 222°
2026-04-25 09:03 -33.55814 19.04569 19077 ft 331 kts 222°
2026-04-25 09:04 -33.57649 19.02915 18639 ft 327 kts 222°
2026-04-25 09:04 -33.59461 19.01284 17940 ft 325 kts 223°
2026-04-25 09:04 -33.61261 18.99662 17171 ft 323 kts 223°
2026-04-25 09:04 -33.63052 18.98049 16469 ft 320 kts 223°
2026-04-25 09:05 -33.64826 18.96452 15769 ft 317 kts 223°
2026-04-25 09:05 -33.66583 18.94869 15096 ft 314 kts 223°
2026-04-25 09:05 -33.68317 18.93305 14450 ft 311 kts 223°
2026-04-25 09:05 -33.70038 18.91753 13819 ft 308 kts 223°
2026-04-25 09:06 -33.71724 18.90231 13140 ft 305 kts 223°
2026-04-25 09:06 -33.73412 18.88706 12433 ft 303 kts 224°
2026-04-25 09:06 -33.75106 18.87172 11900 ft 306 kts 224°
2026-04-25 09:06 -33.76834 18.85606 11504 ft 311 kts 223°
2026-04-25 09:07 -33.78520 18.84091 11304 ft 292 kts 224°
2026-04-25 09:07 -33.80096 18.82679 11060 ft 278 kts 224°
2026-04-25 09:07 -33.81622 18.81298 10949 ft 273 kts 224°
2026-04-25 09:07 -33.83134 18.79922 10805 ft 273 kts 224°
2026-04-25 09:08 -33.84646 18.78545 10703 ft 272 kts 224°
2026-04-25 09:08 -33.86158 18.77172 10581 ft 272 kts 224°
2026-04-25 09:08 -33.87666 18.75803 10457 ft 272 kts 224°
2026-04-25 09:08 -33.89180 18.74437 10339 ft 272 kts 224°
2026-04-25 09:09 -33.90807 18.73289 10235 ft 281 kts 208°
2026-04-25 09:09 -33.92793 18.72921 10141 ft 294 kts 181°
2026-04-25 09:09 -33.94807 18.73459 10028 ft 298 kts 166°
2026-04-25 09:09 -33.96730 18.74262 9583 ft 294 kts 164°
2026-04-25 09:10 -33.98679 18.75117 8843 ft 295 kts 163°
2026-04-25 09:10 -34.00586 18.75957 8162 ft 295 kts 163°
2026-04-25 09:10 -34.02511 18.76799 7511 ft 293 kts 163°
2026-04-25 09:10 -34.04425 18.77627 6868 ft 292 kts 163°
2026-04-25 09:11 -34.08276 18.79030 5592 ft 284 kts 178°
2026-04-25 09:11 -34.10197 18.79179 5243 ft 269 kts 182°
2026-04-25 09:11 -34.12045 18.79246 4751 ft 264 kts 183°
2026-04-25 09:12 -34.13876 18.79294 4162 ft 262 kts 183°
2026-04-25 09:12 -34.15694 18.79321 3603 ft 259 kts 183°
2026-04-25 09:12 -34.17471 18.79254 3159 ft 252 kts 194°
2026-04-25 09:12 -34.19025 18.78422 2995 ft 242 kts 225°
2026-04-25 09:13 -34.19975 18.76854 2972 ft 226 kts 257°
2026-04-25 09:13 -34.20159 18.75029 2978 ft 217 kts 279°
2026-04-25 09:13 -34.20004 18.73223 2978 ft 217 kts 283°
2026-04-25 09:13 -34.19770 18.71400 2975 ft 221 kts 284°
2026-04-25 09:14 -34.19516 18.69573 2964 ft 219 kts 284°
2026-04-25 09:14 -34.19162 18.67829 2915 ft 204 kts 302°
2026-04-25 09:14 -34.18179 18.66781 2967 ft 191 kts 338°
2026-04-25 09:14 -34.16897 18.66443 2936 ft 185 kts 349°
2026-04-25 09:15 -34.15636 18.66237 2908 ft 180 kts 352°
2026-04-25 09:15 -34.14426 18.66082 2931 ft 170 kts 350°
2026-04-25 09:15 -34.13266 18.65822 2942 ft 171 kts 344°
2026-04-25 09:15 -34.12126 18.65391 2896 ft 171 kts 342°
2026-04-25 09:16 -34.11006 18.64930 2714 ft 172 kts 339°
2026-04-25 09:16 -34.09869 18.64435 2382 ft 175 kts 340°
2026-04-25 09:16 -34.08717 18.64009 2030 ft 170 kts 343°
2026-04-25 09:16 -34.07595 18.63686 1722 ft 162 kts 345°
2026-04-25 09:17 -34.05505 18.63072 1309 ft 145 kts 344°
2026-04-25 09:17 -34.04572 18.62737 1176 ft 133 kts 342°
2026-04-25 09:17 -34.03710 18.62430 1091 ft 129 kts 346°
2026-04-25 09:18 -34.02850 18.62198 935 ft 122 kts 347°
2026-04-25 09:18 -34.02068 18.61964 831 ft 115 kts 345°
2026-04-25 09:18 -34.01249 18.61709 694 ft 125 kts 342°
2026-04-25 09:18 -34.00399 18.61407 548 ft 128 kts 341°
2026-04-25 09:19 -33.99556 18.61140 395 ft 123 kts 344°
2026-04-25 09:19 -33.98753 18.60886 239 ft 115 kts 341°
2026-04-25 09:19 -33.98043 18.60658 214 ft 90 kts 345°
2026-04-25 09:19 -33.97564 18.60506 200 ft 52 kts 345°
2026-04-25 09:20 -33.97337 18.60434 208 ft 19 kts 345°
2026-04-25 09:20 -33.97213 18.60390 213 ft 18 kts 335°
2026-04-25 09:20 -33.97128 18.60305 213 ft 15 kts 303°
2026-04-25 09:20 -33.97091 18.60189 209 ft 13 kts 285°
2026-04-25 09:21 -33.97072 18.60109 210 ft 6 kts 285°
2026-04-25 09:21 -33.97059 18.60053 207 ft 7 kts 285°
2026-04-25 09:21 -33.97042 18.59987 207 ft 9 kts 294°
2026-04-25 09:21 -33.96993 18.59930 209 ft 10 kts 336°
2026-04-25 09:22 -33.96920 18.59906 206 ft 9 kts 347°
2026-04-25 09:22 -33.96867 18.59889 206 ft 9 kts 345°
2026-04-25 09:22 -33.96810 18.59871 209 ft 8 kts 345°
2026-04-25 09:22 -33.96797 18.59867 210 ft 3 kts 345°
2026-04-25 09:23 -33.96767 18.59848 210 ft 5 kts 312°
2026-04-25 09:23 -33.96765 18.59814 211 ft 5 kts 264°
2026-04-25 09:23 -33.96771 18.59782 207 ft 1 kts 257°
2026-04-25 09:23 -33.96773 18.59772 203 ft 2 kts 256°
2026-04-25 09:24 -33.96774 18.59763 205 ft 1 kts 257°